This demonstration page uses our WeatherBlox Daily Observations layout. Learn more.

Left ArrowRight Arrow

41.55636, -103.73856

Hourly Observations for December 5, 2021

Temp ( °F °C ) Dew Point ( °F °C ) Humidity (%) Winds ( mph kmh ) Pressure ( in mb ) Visibility ( mi km ) Precip ( " mm )
12:58 am 00:58 Clear 56 13.4 7 -13.9 14 14 W 10 17 29.66 1004 10 16 0.00 0.00
1:58 am 01:58 Clear 54 12.2 6 -14.4 14 14 W 10 17 29.66 1004 10 16 0.00 0.00
2:58 am 02:58 Clear 54 12.4 6 -14.5 14 14 W 16 26 29.65 1004 10 16 0.00 0.00
3:58 am 03:58 Clear 53 11.7 7 -13.9 15 15 WNW 18 30 29.64 1004 10 16 0.00 0.00
4:58 am 04:58 Clear 53 11.7 10 -12.1 18 18 WNW 18 30 29.64 1004 10 16 0.00 0.00
5:58 am 05:58 Clear 53 11.6 12 -11.3 19 19 WNW 16 26 29.66 1004 10 16 0.00 0.00
6:58 am 06:58 Clear 53 11.5 12 -11.2 19 19 WNW 24 39 29.65 1004 10 16 0.00 0.00
7:58 am 07:58 Sunny 52 11.3 13 -10.4 21 21 WNW 21 33 29.66 1004 10 16 0.00 0.00
8:58 am 08:58 Sunny 54 12 15 -9.4 22 22 NW 17 28 29.66 1004 10 16 0.00 0.00
9:58 am 09:58 Sunny 42 5.3 22 -5.3 47 47 NE 20 31 29.80 1009 10 16 0.00 0.00
10:58 am 10:58 Sunny 41 5.1 24 -4.6 50 50 NNE 20 31 29.86 1011 10 16 0.00 0.00
11:58 am 11:58 Mostly Cloudy 36 2 17 -8.2 47 47 N 22 35 29.91 1013 10 16 0.00 0.00
12:58 pm 12:58 Mostly Cloudy 31 -0.6 16 -8.8 54 54 N 21 33 29.99 1016 10 16 0.00 0.00
1:58 pm 13:58 Windy with Snow Showers Likely 29 -1.8 19 -7.3 66 66 N 23 37 30.04 1017 10 16 0.00 0.00
2:58 pm 14:58 Windy with Snow Showers Likely 26 -3.6 20 -6.8 79 79 N 24 39 30.10 1019 2 4 0.00 0.00
3:58 pm 15:58 Windy with Snow Showers Likely 23 -4.8 18 -7.9 79 79 NNW 24 39 30.18 1022 5 8 0.00 0.00
4:58 pm 16:58 Cloudy with Light Snow Showers 22 -5.7 18 -7.7 86 86 NW 17 28 30.19 1022 10 16 0.00 0.00
5:58 pm 17:58 Cloudy 22 -5.7 17 -8.4 81 81 NW 17 28 30.21 1023 10 16 0.00 0.00
6:58 pm 18:58 Mostly Cloudy 22 -5.4 11 -11.4 63 63 NNW 25 41 30.23 1024 10 16 0.00 0.00
7:58 pm 19:58 Mostly Cloudy 21 -6 12 -11.3 66 66 NNW 20 31 30.26 1025 10 16 0.00 0.00
8:58 pm 20:58 Cloudy 21 -6.1 13 -10.7 70 70 WNW 6 9 30.30 1026 10 16 0.00 0.00
9:58 pm 21:58 Cloudy 21 -6.1 12 -11.3 67 67 NW 17 28 30.35 1028 10 16 0.00 0.00
10:58 pm 22:58 Cloudy 20 -6.8 11 -11.7 68 68 NNW 16 26 30.36 1028 10 16 0.00 0.00
11:58 pm 23:58 Cloudy 19 -7 11 -11.6 70 70 NW 13 20 30.41 1030 10 16 0.00 0.00

Powered by AerisWeather